EW5026 Weather Reports


Display with metric or nautical units.
time (UTC)temp
F
wind
direction
speed
MPH
gust
MPH
rain 1hr
in
rain 24hr
in
rain mn
in
humidity
%
barometer
mb
20260510010544 67 269 7.0 14.0 0.00 0.00 0.00 46 1006.1
20260510010044 67 297 6.0 11.0 0.00 0.00 0.00 46 1006.0
20260510005543 68 282 5.0 11.0 0.00 0.00 0.00 46 1006.0
20260510005041 68 302 6.0 13.0 0.00 0.00 0.00 46 1005.8
20260510004542 68 290 5.0 13.0 0.00 0.00 0.00 46 1005.7
20260510004040 68 277 6.0 12.0 0.00 0.00 0.00 45 1005.6
20260510003539 68 297 6.0 16.0 0.00 0.00 0.00 44 1005.5
20260510003046 68 291 7.0 16.0 0.00 0.00 0.00 44 1005.5
20260510002538 69 293 8.0 15.0 0.00 0.00 0.00 43 1005.3
20260510002038 69 263 8.0 19.0 0.00 0.00 0.00 43 1005.3
20260510001537 69 276 11.0 19.0 0.00 0.00 0.00 43 1005.2
20260510001037 69 261 7.0 16.0 0.00 0.00 0.00 44 1005.2
20260510000537 69 268 8.0 13.0 0.00 0.00 0.00 44 1005.2
20260510000042 69 268 6.0 12.0 0.00 0.00 0.00 44 1005.1
20260509235536 69 284 7.0 14.0 0.00 0.00 0.00 44 1005.0
20260509235039 69 301 9.0 15.0 0.00 0.00 0.00 43 1005.2
20260509234551 69 316 9.0 18.0 0.00 0.00 0.00 44 1005.2
20260509234039 69 284 10.0 18.0 0.00 0.00 0.00 42 1005.1
20260509233539 69 268 6.0 13.0 0.00 0.00 0.00 43 1005.1
20260509233038 69 239 7.0 18.0 0.00 0.00 0.00 42 1005.1
20260509232536 70 275 9.0 21.0 0.00 0.00 0.00 42 1005.1
20260509232036 70 254 12.0 21.0 0.00 0.00 0.00 41 1005.1
20260509231536 69 257 8.0 15.0 0.00 0.00 0.00 41 1005.0
20260509231037 70 272 8.0 18.0 0.00 0.00 0.00 42 1005.0
20260509230536 70 263 8.0 18.0 0.00 0.00 0.00 42 1005.1
20260509230039 70 305 7.0 12.0 0.00 0.00 0.00 42 1005.0
20260509225535 70 239 6.0 13.0 0.00 0.00 0.00 42 1004.8
20260509225035 70 303 9.0 13.0 0.00 0.00 0.00 40 1004.8
20260509224533 70 273 7.0 16.0 0.00 0.00 0.00 39 1004.8
20260509224032 71 311 7.0 17.0 0.00 0.00 0.00 38 1004.7
20260509223532 71 280 9.0 17.0 0.00 0.00 0.00 39 1004.6
20260509223033 71 283 9.0 18.0 0.00 0.00 0.00 36 1004.5
20260509222536 71 263 8.0 18.0 0.00 0.00 0.00 36 1004.5
20260509222035 71 247 11.0 18.0 0.00 0.00 0.00 34 1004.4
20260509221535 71 240 12.0 20.0 0.00 0.00 0.00 35 1004.4
20260509221030 71 223 11.0 20.0 0.00 0.00 0.00 36 1004.4
20260509220530 72 261 9.0 15.0 0.00 0.00 0.00 36 1004.4
20260509220030 72 279 10.0 20.0 0.00 0.00 0.00 34 1004.4
20260509215530 72 286 12.0 20.0 0.00 0.00 0.00 35 1004.4
20260509215029 72 283 10.0 19.0 0.00 0.00 0.00 33 1004.3
20260509214530 72 309 8.0 14.0 0.00 0.00 0.00 37 1004.2
20260509214029 72 261 7.0 17.0 0.00 0.00 0.00 37 1004.1
20260509213530 72 256 5.0 13.0 0.00 0.00 0.00 37 1004.2
20260509213032 72 308 7.0 13.0 0.00 0.00 0.00 35 1004.0
20260509212532 73 266 8.0 13.0 0.00 0.00 0.00 36 1004.0
20260509212031 73 277 8.0 12.0 0.00 0.00 0.00 36 1003.9
20260509211528 73 271 6.0 13.0 0.00 0.00 0.00 37 1003.8
20260509211028 73 260 6.0 13.0 0.00 0.00 0.00 34 1003.7
20260509210528 73 302 6.0 10.0 0.00 0.00 0.00 35 1003.7
20260509210034 73 294 4.0 13.0 0.00 0.00 0.00 36 1003.7
20260509205528 73 278 6.0 13.0 0.00 0.00 0.00 36 1003.7
20260509205032 73 288 7.0 13.0 0.00 0.00 0.00 35 1003.7
20260509204528 73 264 7.0 12.0 0.00 0.00 0.00 34 1003.5
20260509204028 73 271 7.0 15.0 0.00 0.00 0.00 32 1003.5
20260509203529 73 240 9.0 17.0 0.00 0.00 0.00 34 1003.6
20260509203028 73 294 8.0 19.0 0.00 0.00 0.00 34 1003.7
20260509202527 73 273 11.0 19.0 0.00 0.00 0.00 34 1003.8
20260509202028 73 257 11.0 21.0 0.00 0.00 0.00 34 1003.8
20260509201527 73 283 13.0 22.0 0.00 0.00 0.00 33 1003.8
20260509201026 74 266 15.0 22.0 0.00 0.00 0.00 33 1003.7
20260509200530 74 273 13.0 21.0 0.00 0.00 0.00 34 1003.7
20260509200026 74 249 8.0 16.0 0.00 0.00 0.00 39 1003.7
20260509195530 74 254 7.0 16.0 0.00 0.00 0.00 42 1003.8
20260509195025 75 266 11.0 16.0 0.00 0.00 0.00 39 1003.8
20260509194524 75 290 8.0 20.0 0.00 0.00 0.00 41 1003.8
20260509194024 75 253 12.0 20.0 0.00 0.00 0.00 36 1003.8
20260509193525 75 264 10.0 18.0 0.00 0.00 0.00 38 1003.8
20260509193030 75 288 10.0 17.0 0.00 0.00 0.00 40 1003.8
20260509192522 73 274 11.0 23.0 0.00 0.00 0.00 41 1003.9
20260509192025 73 254 11.0 23.0 0.00 0.00 0.00 38 1003.9
20260509191522 73 285 11.0 18.0 0.00 0.00 0.00 39 1003.9
20260509191021 74 292 10.0 20.0 0.00 0.00 0.00 38 1003.9
20260509190521 74 257 11.0 21.0 0.00 0.00 0.00 39 1003.9
20260509190023 74 278 11.0 21.0 0.00 0.00 0.00 38 1003.9
20260509185521 74 269 13.0 21.0 0.00 0.00 0.00 40 1003.9
20260509185025 74 262 11.0 21.0 0.00 0.00 0.00 38 1003.9
20260509184528 74 244 12.0 19.0 0.00 0.00 0.00 39 1003.8
20260509184020 73 250 14.0 20.0 0.00 0.00 0.00 42 1003.8
20260509183520 73 256 9.0 20.0 0.00 0.00 0.00 41 1003.8
20260509183020 74 294 12.0 20.0 0.00 0.00 0.00 41 1003.7
20260509182520 74 274 8.0 18.0 0.00 0.00 0.00 45 1003.7
20260509182018 74 277 11.0 18.0 0.00 0.00 0.00 43 1003.7
20260509181518 73 246 8.0 17.0 0.00 0.00 0.00 49 1003.6
20260509181022 74 249 12.0 17.0 0.00 0.00 0.00 48 1003.6
20260509180516 73 250 10.0 21.0 0.00 0.00 0.00 48 1003.5
20260509180015 73 260 11.0 21.0 0.00 0.00 0.00 51 1003.6
20260509175515 73 249 9.0 15.0 0.00 0.00 0.00 50 1003.7
20260509175017 73 252 9.0 17.0 0.00 0.00 0.00 55 1003.7
20260509174515 72 246 9.0 17.0 0.00 0.00 0.00 56 1003.8
20260509174019 72 205 11.0 16.0 0.00 0.00 0.00 53 1003.7
20260509173511 72 200 8.0 16.0 0.00 0.00 0.00 57 1003.9
20260509173010 71 261 11.0 16.0 0.00 0.00 0.00 58 1004.0
20260509172512 71 261 9.0 18.0 0.00 0.00 0.00 58 1004.0
20260509172009 71 222 11.0 18.0 0.00 0.00 0.00 60 1004.1
20260509171510 71 223 10.0 18.0 0.00 0.00 0.00 62 1004.1
20260509171006 70 227 9.0 16.0 0.00 0.00 0.00 60 1004.1
20260509170505 70 255 11.0 16.0 0.00 0.00 0.00 60 1004.0
20260509170005 70 262 7.0 15.0 0.00 0.00 0.00 63 1003.9
20260509165503 69 254 8.0 17.0 0.00 0.00 0.00 66 1003.9
20260509165005 69 239 10.0 17.0 0.00 0.00 0.00 65 1003.8
20260509164501 69 226 9.0 16.0 0.00 0.00 0.00 65 1003.8
20260509164001 69 259 8.0 16.0 0.00 0.00 0.00 67 1003.8
20260509163559 69 230 9.0 16.0 0.00 0.00 0.00 68 1003.8
20260509163119 68 236 7.0 15.0 0.00 0.00 0.00 67 1003.8
20260509162559 68 232 9.0 15.0 0.00 0.00 0.00 67 1003.8
20260509162059 68 269 8.0 13.0 0.00 0.00 0.00 68 1003.8
20260509161557 68 229 9.0 14.0 0.00 0.00 0.00 68 1003.9
20260509161057 68 234 10.0 18.0 0.00 0.00 0.00 68 1004.0
20260509160556 67 240 10.0 18.0 0.00 0.00 0.00 69 1004.1
20260509160057 67 220 10.0 17.0 0.00 0.00 0.00 69 1004.1
20260509155556 67 242 10.0 17.0 0.00 0.00 0.00 69 1004.1
20260509155054 67 217 10.0 17.0 0.00 0.00 0.00 69 1004.0
20260509154553 66 254 9.0 19.0 0.00 0.00 0.00 70 1004.1
20260509154052 66 234 9.0 21.0 0.00 0.00 0.00 72 1004.1
20260509153552 66 201 12.0 21.0 0.00 0.00 0.00 71 1004.2
20260509153051 66 225 11.0 17.0 0.00 0.00 0.00 71 1004.2
20260509152553 65 202 10.0 15.0 0.00 0.00 0.00 72 1004.2
20260509152051 65 258 10.0 15.0 0.00 0.00 0.00 72 1004.2
20260509151547 65 221 9.0 16.0 0.00 0.00 0.00 74 1004.3
20260509151051 64 221 10.0 16.0 0.00 0.00 0.00 73 1004.3
20260509150546 64 229 10.0 16.0 0.00 0.00 0.00 74 1004.3
20260509145545 64 265 10.0 17.0 0.00 0.00 0.00 73 1004.3
20260509145049 64 220 10.0 17.0 0.00 0.00 0.00 74 1004.2
20260509144634 63 257 10.0 17.0 0.00 0.00 0.00 75 1004.1
20260509144047 63 234 10.0 17.0 0.00 0.00 0.00 75 1004.0
20260509143541 63 238 10.0 17.0 0.00 0.00 0.00 76 1003.9
20260509143047 62 226 10.0 16.0 0.00 0.00 0.00 74 1004.0
20260509142543 62 229 9.0 17.0 0.00 0.00 0.00 76 1004.0
20260509142039 62 246 11.0 17.0 0.00 0.00 0.00 75 1004.0
20260509141543 62 217 10.0 18.0 0.00 0.00 0.00 78 1003.8
20260509141037 61 243 11.0 18.0 0.00 0.00 0.00 76 1003.9
20260509140537 62 221 11.0 19.0 0.00 0.00 0.00 80 1003.9
20260509140036 61 257 10.0 19.0 0.00 0.00 0.00 80 1004.0
20260509135535 61 207 9.0 16.0 0.00 0.00 0.00 81 1004.1
20260509135034 60 200 12.0 16.0 0.00 0.00 0.00 82 1004.1
20260509134534 59 235 11.0 16.0 0.00 0.00 0.00 82 1004.2
20260509134033 59 217 10.0 15.0 0.00 0.00 0.00 84 1004.2
20260509133534 59 219 8.0 15.0 0.00 0.00 0.00 87 1004.1
20260509133030 58 241 7.0 15.0 0.00 0.00 0.00 88 1004.1
20260509132528 57 226 11.0 14.0 0.00 0.00 0.00 87 1004.2
20260509132027 57 213 10.0 15.0 0.00 0.00 0.00 88 1004.3
20260509131533 57 198 7.0 14.0 0.00 0.00 0.00 90 1004.3
20260509131025 56 225 10.0 14.0 0.00 0.00 0.00 90 1004.4
20260509130524 56 204 8.0 14.0 0.00 0.00 0.00 90 1004.5
20260509130024 56 237 8.0 13.0 0.00 0.00 0.00 91 1004.4
20260509125522 55 211 8.0 13.0 0.00 0.00 0.00 91 1004.4
20260509125023 55 211 8.0 13.0 0.00 0.00 0.00 91 1004.5
20260509124522 55 248 6.0 10.0 0.00 0.00 0.00 92 1004.7
20260509124021 55 232 6.0 11.0 0.00 0.00 0.00 93 1004.7
20260509123520 54 222 5.0 10.0 0.00 0.00 0.00 93 1004.6
20260509123020 54 223 6.0 11.0 0.00 0.00 0.00 94 1004.4
20260509122519 54 175 7.0 11.0 0.00 0.00 0.00 94 1004.1
20260509122019 53 184 8.0 11.0 0.00 0.00 0.00 94 1003.9
20260509121524 53 166 7.0 10.0 0.00 0.00 0.00 94 1003.8
20260509121017 53 178 7.0 11.0 0.00 0.00 0.00 95 1003.8
20260509120517 53 188 7.0 11.0 0.00 0.00 0.00 94 1003.8
20260509120017 52 185 8.0 11.0 0.00 0.00 0.00 94 1003.7
20260509115516 52 193 7.0 9.0 0.00 0.01 0.00 94 1003.8
20260509115016 52 169 6.0 9.0 0.00 0.01 0.00 94 1003.8
20260509114516 52 180 6.0 12.0 0.00 0.01 0.00 95 1003.8
20260509114016 52 176 8.0 12.0 0.00 0.01 0.00 95 1003.7
20260509113515 52 189 9.0 13.0 0.00 0.01 0.00 94 1003.7
20260509113015 52 182 7.0 11.0 0.00 0.01 0.00 94 1003.8
20260509112515 52 207 8.0 11.0 0.00 0.01 0.00 94 1003.8
20260509112015 52 188 7.0 15.0 0.00 0.01 0.00 94 1003.9
20260509111514 52 189 10.0 15.0 0.00 0.01 0.00 94 1003.7
20260509111015 52 200 8.0 13.0 0.00 0.01 0.00 94 1003.8
20260509110514 52 209 8.0 13.0 0.00 0.01 0.00 94 1003.8
20260509110014 51 200 7.0 13.0 0.00 0.01 0.00 94 1003.8
20260509105514 51 197 8.0 13.0 0.00 0.05 0.00 94 1003.8
20260509105015 51 185 8.0 12.0 0.00 0.05 0.00 94 1003.6
20260509104529 51 190 8.0 12.0 0.00 0.05 0.00 94 1003.8
20260509104013 51 205 8.0 13.0 0.00 0.05 0.00 94 1003.8
20260509103512 51 181 8.0 13.0 0.00 0.05 0.00 94 1003.9
20260509103012 51 192 7.0 13.0 0.00 0.05 0.00 94 1003.9
20260509102511 50 201 9.0 13.0 0.00 0.05 0.00 94 1003.9
20260509102011 49 181 7.0 9.0 0.00 0.05 0.00 94 1003.9
20260509101513 49 170 5.0 7.0 0.00 0.05 0.00 93 1003.9
20260509101011 48 170 4.0 6.0 0.00 0.05 0.00 93 1003.9
20260509100508 48 169 4.0 6.0 0.00 0.05 0.00 92 1003.9
20260509100015 49 165 4.0 6.0 0.00 0.05 0.00 93 1003.9
20260509095506 49 177 4.0 7.0 0.00 0.09 0.00 92 1004.0
20260509095006 50 177 4.0 8.0 0.00 0.09 0.00 92 1004.1
20260509094516 50 191 5.0 8.0 0.00 0.09 0.00 93 1004.2
20260509094005 50 188 5.0 7.0 0.00 0.09 0.00 93 1004.2
20260509093505 50 184 5.0 7.0 0.00 0.09 0.00 94 1004.2
20260509093005 49 188 4.0 6.0 0.00 0.09 0.00 93 1004.2
20260509092504 49 169 4.0 6.0 0.00 0.09 0.00 93 1004.2
20260509092004 49 182 4.0 6.0 0.00 0.09 0.00 93 1004.2
20260509091503 49 167 3.0 6.0 0.00 0.09 0.00 92 1004.2
20260509091003 49 171 4.0 7.0 0.00 0.09 0.00 92 1004.2
20260509090503 49 164 4.0 8.0 0.00 0.09 0.00 92 1004.1
20260509090003 49 181 5.0 8.0 0.00 0.09 0.00 92 1004.2
20260509085502 49 177 4.0 6.0 0.00 0.09 0.00 91 1004.1
20260509085004 50 166 4.0 8.0 0.00 0.09 0.00 91 1004.1
20260509084502 51 177 4.0 11.0 0.00 0.09 0.00 91 1004.1
20260509084002 51 189 6.0 11.0 0.00 0.09 0.00 92 1004.0
20260509083501 51 201 6.0 9.0 0.00 0.09 0.00 93 1004.1
20260509083101 51 198 7.0 9.0 0.00 0.09 0.00 93 1004.1
20260509082600 50 192 5.0 8.0 0.00 0.09 0.00 92 1004.2
20260509082100 50 188 6.0 8.0 0.00 0.09 0.00 92 1004.2
20260509081559 50 204 6.0 7.0 0.00 0.09 0.00 93 1004.3
20260509081058 49 185 5.0 7.0 0.00 0.09 0.00 92 1004.3
20260509080557 49 188 4.0 7.0 0.00 0.09 0.00 92 1004.3
20260509080100 49 178 4.0 6.0 0.00 0.09 0.00 92 1004.4
20260509075557 49 181 4.0 5.0 0.00 0.09 0.00 91 1004.4
20260509075057 50 197 3.0 6.0 0.00 0.09 0.00 91 1004.4
20260509074600 50 197 4.0 6.0 0.00 0.09 0.00 92 1004.5
20260509074056 50 212 4.0 5.0 0.00 0.09 0.00 92 1004.6
20260509073556 50 214 3.0 5.0 0.00 0.09 0.00 92 1004.5
20260509073058 50 199 3.0 5.0 0.00 0.09 0.00 92 1004.4
20260509072557 50 199 3.0 5.0 0.00 0.09 0.00 92 1004.4
20260509072055 50 178 4.0 5.0 0.00 0.09 0.00 91 1004.2
20260509071608 50 186 3.0 5.0 0.00 0.09 0.00 91 1004.3
20260509071100 50 191 4.0 6.0 0.00 0.09 0.00 92 1004.3
20260509070558 50 188 4.0 6.0 0.00 0.09 0.00 92 1004.4
20260509070056 50 186 3.0 5.0 0.00 0.09 0.00 91 1004.5
20260509065553 50 167 3.0 5.0 0.00 0.09 0.00 91 1004.5
20260509065057 50 167 3.0 5.0 0.00 0.09 0.00 91 1004.5
20260509064555 50 167 3.0 5.0 0.00 0.09 0.00 90 1004.6
20260509064050 50 167 3.0 5.0 0.00 0.09 0.00 89 1004.7
20260509063548 51 181 3.0 5.0 0.00 0.09 0.00 90 1004.7
20260509063049 51 181 4.0 6.0 0.00 0.09 0.00 90 1004.6
20260509062547 51 181 4.0 6.0 0.00 0.09 0.00 90 1004.8
20260509062047 51 181 4.0 6.0 0.00 0.09 0.00 90 1004.9
20260509061550 51 178 4.0 6.0 0.00 0.09 0.00 89 1004.9
20260509061043 52 188 4.0 6.0 0.00 0.09 0.00 89 1005.1
20260509060543 52 192 4.0 6.0 0.00 0.09 0.00 89 1005.0
20260509060052 52 192 4.0 6.0 0.00 0.09 0.00 89 1005.0
20260509055543 52 200 4.0 6.0 0.00 0.09 0.00 89 1005.2
20260509055041 52 211 4.0 7.0 0.00 0.09 0.00 88 1005.2
20260509054549 53 192 5.0 7.0 0.00 0.09 0.00 88 1005.2
20260509054043 53 202 3.0 6.0 0.00 0.09 0.00 88 1005.2
20260509053539 53 202 4.0 7.0 0.00 0.09 0.00 87 1005.2
20260509053039 53 202 5.0 7.0 0.00 0.09 0.00 87 1005.2
20260509052538 53 209 5.0 7.0 0.00 0.09 0.00 87 1005.2
20260509052037 53 204 5.0 7.0 0.00 0.09 0.00 87 1005.1
20260509051539 53 203 5.0 8.0 0.00 0.09 0.00 87 1005.2
20260509051036 53 209 5.0 8.0 0.00 0.09 0.00 87 1005.2
20260509050536 53 207 5.0 8.0 0.00 0.09 0.00 87 1005.2
20260509050047 54 215 4.0 7.0 0.00 0.09 0.00 87 1005.2
20260509045534 54 205 5.0 7.0 0.00 0.09 0.09 87 1005.1
20260509045034 54 179 5.0 8.0 0.00 0.09 0.09 86 1005.1
20260509044543 54 194 5.0 8.0 0.00 0.09 0.09 86 1005.2
20260509044034 54 206 5.0 8.0 0.00 0.09 0.09 85 1005.4
20260509043532 55 204 5.0 8.0 0.00 0.09 0.09 85 1005.5
20260509043033 55 207 5.0 10.0 0.00 0.09 0.09 85 1005.5
20260509042532 55 212 6.0 10.0 0.00 0.09 0.09 85 1005.5
20260509042032 55 211 6.0 10.0 0.00 0.09 0.09 85 1005.6
20260509041532 55 214 5.0 10.0 0.00 0.09 0.09 85 1005.6
20260509041032 55 214 6.0 10.0 0.00 0.09 0.09 85 1005.6
20260509040534 55 217 4.0 7.0 0.00 0.09 0.09 85 1005.8
20260509040032 55 208 5.0 7.0 0.00 0.09 0.09 85 1005.8
20260509035533 55 209 5.0 7.0 0.00 0.09 0.09 85 1005.8
20260509035032 55 211 4.0 7.0 0.00 0.09 0.09 85 1005.8
20260509034532 55 231 5.0 7.0 0.00 0.09 0.09 85 1005.8
20260509034031 55 205 4.0 9.0 0.00 0.09 0.09 85 1005.9
20260509033533 56 208 5.0 9.0 0.00 0.09 0.09 85 1005.8
20260509033031 56 207 5.0 8.0 0.00 0.09 0.09 84 1005.8
20260509032531 56 193 5.0 8.0 0.00 0.09 0.09 84 1005.8
20260509032034 56 195 6.0 8.0 0.00 0.09 0.09 85 1005.8
20260509031532 56 182 5.0 7.0 0.00 0.09 0.09 85 1005.9
20260509031030 56 188 4.0 8.0 0.00 0.09 0.09 84 1005.8
20260509030534 56 192 5.0 8.0 0.00 0.09 0.09 84 1005.9
20260509030033 56 186 5.0 8.0 0.00 0.09 0.09 84 1005.9
20260509025529 56 192 5.0 8.0 0.00 0.09 0.09 83 1005.9
20260509025029 56 188 5.0 8.0 0.00 0.09 0.09 83 1006.0
20260509024530 56 179 5.0 8.0 0.00 0.09 0.09 83 1005.9
20260509024031 56 182 6.0 9.0 0.00 0.09 0.09 83 1005.9
20260509023528 56 202 5.0 7.0 0.00 0.09 0.09 83 1006.0
20260509023031 57 191 5.0 8.0 0.00 0.09 0.09 82 1005.9
20260509022529 57 211 5.0 9.0 0.00 0.09 0.09 81 1005.8
20260509022029 57 197 5.0 9.0 0.00 0.09 0.09 81 1005.8
20260509021529 57 184 6.0 10.0 0.00 0.09 0.09 81 1005.7
20260509021033 58 194 7.0 11.0 0.00 0.09 0.09 80 1005.7
20260509020532 58 206 7.0 11.0 0.00 0.09 0.09 80 1005.7
20260509020028 58 198 7.0 11.0 0.00 0.09 0.09 80 1005.7
20260509015528 58 206 7.0 11.0 0.00 0.09 0.09 79 1005.6
20260509015028 58 190 7.0 10.0 0.00 0.09 0.09 79 1005.4
20260509014528 58 198 6.0 9.0 0.00 0.09 0.09 78 1005.4
20260509014028 58 192 6.0 9.0 0.00 0.09 0.09 78 1005.5
20260509013527 58 210 5.0 7.0 0.00 0.09 0.09 77 1005.5
20260509013038 58 195 6.0 7.0 0.00 0.09 0.09 76 1005.5
20260509012527 58 200 5.0 8.0 0.00 0.09 0.09 75 1005.5
20260509012027 59 192 5.0 8.0 0.00 0.09 0.09 75 1005.5
20260509011527 59 199 5.0 8.0 0.00 0.09 0.09 73 1005.5
20260509011027 60 216 6.0 11.0 0.00 0.09 0.09 72 1005.5